| time (UTC) | temp F | wind direction | speed knots | gust knots | rain 1hr in | rain 24hr in | rain mn in | humidity % | barometer mb |
| 20260506015711 | 64 | 225 | 0.0 | 0.0 | 0.00 | 0.00 | 0.00 | 97 | 1010.3 |
| 20260506015204 | 64 | 225 | 0.0 | 0.0 | 0.00 | 0.00 | 0.00 | 97 | 1010.4 |
| 20260506014650 | 64 | 225 | 0.0 | 0.0 | 0.00 | 0.00 | 0.00 | 97 | 1010.5 |
| 20260506014141 | 64 | 225 | 0.0 | 0.0 | 0.00 | 0.00 | 0.00 | 97 | 1010.4 |
| 20260506013631 | 64 | 225 | 0.0 | 0.0 | 0.00 | 0.00 | 0.00 | 97 | 1010.4 |
| 20260506013120 | 64 | 225 | 0.0 | 0.0 | 0.00 | 0.00 | 0.00 | 97 | 1010.4 |
| 20260506012610 | 64 | 225 | 0.0 | 0.0 | 0.00 | 0.00 | 0.00 | 97 | 1010.3 |
| 20260506012100 | 65 | 225 | 0.0 | 0.0 | 0.00 | 0.00 | 0.00 | 97 | 1010.3 |
| 20260506011550 | 65 | 225 | 0.0 | 0.0 | 0.00 | 0.00 | 0.00 | 96 | 1010.3 |
| 20260506011040 | 65 | 203 | 0.0 | 0.0 | 0.00 | 0.00 | 0.00 | 96 | 1010.4 |
| 20260506010530 | 65 | 203 | 0.0 | 0.0 | 0.00 | 0.00 | 0.00 | 96 | 1010.3 |
| 20260506010021 | 65 | 248 | 0.0 | 0.0 | 0.00 | 0.00 | 0.00 | 96 | 1010.6 |
| 20260506005510 | 65 | 180 | 0.0 | 0.0 | 0.00 | 0.00 | 0.00 | 96 | 1010.5 |
| 20260506005000 | 65 | 180 | 0.0 | 0.0 | 0.00 | 0.00 | 0.00 | 96 | 1010.5 |
| 20260506004459 | 66 | 270 | 0.0 | 0.0 | 0.00 | 0.00 | 0.00 | 96 | 1010.5 |
| 20260506003429 | 66 | 23 | 0.0 | 0.0 | 0.00 | 0.00 | 0.00 | 95 | 1025.6 |
| 20260506002922 | 66 | 180 | 0.0 | 0.0 | 0.00 | 0.00 | 0.00 | 95 | 1010.3 |
| 20260506002410 | 67 | 180 | 0.0 | 0.0 | 0.00 | 0.00 | 0.00 | 95 | 1010.2 |
| 20260506001859 | 67 | 225 | 0.0 | 0.0 | 0.00 | 0.00 | 0.00 | 95 | 1010.1 |
| 20260506001349 | 67 | 225 | 0.0 | 0.0 | 0.00 | 0.00 | 0.00 | 95 | 1010.1 |
| 20260506000839 | 67 | 113 | 0.0 | 0.0 | 0.00 | 0.00 | 0.00 | 94 | 1009.9 |
| 20260506000330 | 67 | 180 | 0.0 | 0.0 | 0.00 | 0.00 | 0.00 | 94 | 1010.0 |
| 20260505235819 | 68 | 180 | 0.0 | 0.0 | 0.00 | 0.00 | 0.00 | 94 | 1009.9 |
| 20260505234758 | 69 | 158 | 0.0 | 0.0 | 0.00 | 0.00 | 0.00 | 93 | 1010.0 |
| 20260505234249 | 69 | 158 | 0.0 | 0.0 | 0.00 | 0.00 | 0.00 | 93 | 1009.8 |
| 20260505233738 | 69 | 135 | 0.0 | 0.0 | 0.00 | 0.00 | 0.00 | 93 | 1009.7 |
| 20260505232717 | 69 | 135 | 0.0 | 0.0 | 0.00 | 0.00 | 0.00 | 93 | 1009.9 |
| 20260505232208 | 69 | 135 | 0.0 | 0.0 | 0.00 | 0.00 | 0.00 | 92 | 1009.8 |
| 20260505231658 | 69 | 135 | 0.0 | 0.0 | 0.00 | 0.00 | 0.00 | 93 | 1009.9 |
| 20260505231149 | 69 | 135 | 0.0 | 0.0 | 0.00 | 0.00 | 0.00 | 92 | 1009.9 |
| 20260505230639 | 70 | 135 | 0.0 | 0.0 | 0.00 | 0.00 | 0.00 | 92 | 1009.9 |
| 20260505230128 | 70 | 135 | 0.0 | 0.0 | 0.00 | 0.00 | 0.00 | 91 | 1009.9 |
| 20260505225618 | 70 | 135 | 0.0 | 0.0 | 0.00 | 0.00 | 0.00 | 90 | 1009.6 |
| 20260505225108 | 70 | 135 | 0.0 | 0.0 | 0.00 | 0.00 | 0.00 | 90 | 1009.8 |
| 20260505224557 | 71 | 180 | 0.0 | 0.0 | 0.00 | 0.00 | 0.00 | 90 | 1009.9 |
| 20260505224046 | 71 | 135 | 0.0 | 0.0 | 0.00 | 0.00 | 0.00 | 90 | 1009.8 |
| 20260505223027 | 71 | 113 | 0.0 | 0.0 | 0.00 | 0.00 | 0.00 | 89 | 1009.4 |
| 20260505222516 | 71 | 158 | 0.0 | 0.0 | 0.00 | 0.00 | 0.00 | 89 | 1009.6 |
| 20260505222007 | 71 | 113 | 0.0 | 0.0 | 0.00 | 0.00 | 0.00 | 88 | 1009.5 |
| 20260505221456 | 72 | 180 | 0.0 | 0.0 | 0.00 | 0.00 | 0.00 | 88 | 1009.4 |
| 20260505220946 | 72 | 158 | 0.0 | 0.0 | 0.00 | 0.00 | 0.00 | 87 | 1009.6 |
| 20260505220437 | 72 | 158 | 0.0 | 0.0 | 0.00 | 0.00 | 0.00 | 87 | 1009.5 |
| 20260505215416 | 72 | 203 | 0.0 | 3.5 | 0.00 | 0.00 | 0.00 | 87 | 1009.5 |
| 20260505214906 | 72 | 225 | 0.0 | 3.5 | 0.00 | 0.00 | 0.00 | 87 | 1009.5 |
| 20260505213335 | 74 | 203 | 0.0 | 0.0 | 0.00 | 0.00 | 0.00 | 84 | 1009.1 |
| 20260505212825 | 74 | 225 | 0.0 | 0.0 | 0.00 | 0.00 | 0.00 | 83 | 1009.1 |
| 20260505212316 | 50 | 113 | 0.0 | 0.0 | 0.00 | 0.00 | 0.00 | 62 | 1009.1 |
| 20260505211256 | 78 | 0 | 0.0 | 0.0 | 0.00 | 0.00 | 0.00 | 76 | 1009.1 |
| 20260505210745 | 78 | 0 | 0.0 | 0.0 | 0.00 | 0.00 | 0.00 | 75 | 1009.1 |
| 20260505210235 | 79 | 0 | 0.0 | 0.0 | 0.00 | 0.00 | 0.00 | 74 | 1008.8 |
| 20260505205215 | 80 | 0 | 0.0 | 0.0 | 0.00 | 0.00 | 0.00 | 72 | 1008.8 |
| 20260505204706 | 80 | 0 | 0.0 | 0.0 | 0.00 | 0.00 | 0.00 | 73 | 1009.1 |
| 20260505204155 | 79 | 0 | 0.0 | 0.0 | 0.00 | 0.00 | 0.00 | 75 | 1009.0 |
| 20260505203644 | 79 | 0 | 0.0 | 0.0 | 0.00 | 0.00 | 0.00 | 75 | 1009.0 |
| 20260505202625 | 79 | 0 | 0.0 | 0.0 | 0.00 | 0.00 | 0.00 | 74 | 1008.9 |
| 20260505202114 | 79 | 0 | 0.0 | 0.0 | 0.00 | 0.00 | 0.00 | 74 | 1008.7 |
| 20260505201604 | 79 | 0 | 0.0 | 0.0 | 0.00 | 0.00 | 0.00 | 74 | 1008.9 |
| 20260505200033 | 79 | 45 | 0.0 | 0.0 | 0.00 | 0.00 | 0.00 | 72 | 1009.1 |
| 20260505195523 | 80 | 23 | 0.0 | 0.0 | 0.00 | 0.00 | 0.00 | 72 | 1008.9 |
| 20260505195013 | 80 | 23 | 0.0 | 0.0 | 0.00 | 0.00 | 0.00 | 71 | 1009.0 |
| 20260505194503 | 80 | 23 | 0.0 | 0.0 | 0.00 | 0.00 | 0.00 | 71 | 1009.1 |
| 20260505193953 | 80 | 23 | 0.0 | 0.0 | 0.00 | 0.00 | 0.00 | 71 | 1008.9 |
| 20260505193443 | 80 | 23 | 0.0 | 0.0 | 0.00 | 0.00 | 0.00 | 70 | 1009.0 |
| 20260505192933 | 81 | 45 | 0.0 | 0.0 | 0.00 | 0.00 | 0.00 | 69 | 1009.0 |
| 20260505192422 | 80 | 23 | 0.0 | 0.0 | 0.00 | 0.00 | 0.00 | 72 | 1008.9 |
| 20260505191912 | 80 | 23 | 0.0 | 0.0 | 0.00 | 0.00 | 0.00 | 72 | 1009.1 |
| 20260505191403 | 80 | 45 | 0.0 | 0.0 | 0.00 | 0.00 | 0.00 | 70 | 1009.0 |
| 20260505190853 | 81 | 23 | 0.0 | 0.0 | 0.00 | 0.00 | 0.00 | 68 | 1009.1 |
| 20260505185832 | 81 | 0 | 0.0 | 0.0 | 0.00 | 0.00 | 0.00 | 69 | 1009.0 |
| 20260505185322 | 82 | 0 | 0.0 | 0.0 | 0.00 | 0.00 | 0.00 | 67 | 1009.2 |
| 20260505184302 | 82 | 68 | 0.0 | 3.5 | 0.00 | 0.00 | 0.00 | 67 | 1009.1 |
| 20260505183752 | 82 | 0 | 0.0 | 3.5 | 0.00 | 0.00 | 0.00 | 67 | 1009.0 |
| 20260505183241 | 81 | 23 | 0.0 | 3.5 | 0.00 | 0.00 | 0.00 | 68 | 1009.0 |
| 20260505182732 | 80 | 45 | 0.0 | 3.5 | 0.00 | 0.00 | 0.00 | 69 | 1009.1 |
| 20260505182222 | 81 | 23 | 0.0 | 1.7 | 0.00 | 0.00 | 0.00 | 69 | 1009.1 |
| 20260505181711 | 81 | 68 | 0.0 | 7.8 | 0.00 | 0.00 | 0.00 | 69 | 1009.1 |
| 20260505181201 | 80 | 338 | 0.0 | 7.8 | 0.00 | 0.00 | 0.00 | 68 | 1009.0 |
| 20260505180141 | 81 | 23 | 0.9 | 6.1 | 0.00 | 0.00 | 0.00 | 67 | 1009.1 |
| 20260505175631 | 82 | 23 | 0.0 | 1.7 | 0.00 | 0.00 | 0.00 | 66 | 1009.2 |
| 20260505174610 | 82 | 338 | 0.0 | 1.7 | 0.00 | 0.00 | 0.00 | 67 | 1009.1 |
| 20260505174101 | 82 | 0 | 0.0 | 1.7 | 0.00 | 0.00 | 0.00 | 68 | 1009.3 |
| 20260505173550 | 81 | 23 | 0.0 | 1.7 | 0.00 | 0.00 | 0.00 | 69 | 1009.5 |
| 20260505173040 | 82 | 0 | 0.0 | 3.5 | 0.00 | 0.00 | 0.00 | 66 | 1009.4 |
| 20260505172020 | 82 | 293 | 0.9 | 6.1 | 0.00 | 0.00 | 0.00 | 68 | 1009.4 |
| 20260505170450 | 82 | 68 | 0.0 | 6.1 | 0.00 | 0.00 | 0.00 | 67 | 1009.6 |
| 20260505165940 | 82 | 293 | 0.0 | 5.2 | 0.00 | 0.00 | 0.00 | 67 | 1009.5 |
| 20260505165429 | 82 | 135 | 0.0 | 7.8 | 0.00 | 0.00 | 0.00 | 68 | 1026.5 |
| 20260505164920 | 80 | 0 | 1.7 | 7.8 | 0.00 | 0.00 | 0.00 | 71 | 1009.8 |
| 20260505164410 | 80 | 45 | 1.7 | 3.5 | 0.00 | 0.00 | 0.00 | 72 | 1009.5 |
| 20260505163859 | 79 | 23 | 0.0 | 3.5 | 0.00 | 0.00 | 0.00 | 74 | 1009.7 |
| 20260505163349 | 78 | 68 | 0.0 | 5.2 | 0.00 | 0.00 | 0.00 | 76 | 1009.7 |
| 20260505162839 | 77 | 23 | 0.9 | 5.2 | 0.00 | 0.00 | 0.00 | 79 | 1010.0 |
| 20260505160758 | 74 | 45 | 0.0 | 7.0 | 0.00 | 0.00 | 0.00 | 84 | 1010.3 |
| 20260505160248 | 74 | 23 | 0.0 | 7.0 | 0.00 | 0.00 | 0.00 | 85 | 1010.3 |
| 20260505153148 | 72 | 68 | 1.7 | 6.1 | 0.00 | 0.00 | 0.00 | 89 | 1011.1 |
| 20260505152637 | 72 | 90 | 3.5 | 5.2 | 0.00 | 0.00 | 0.00 | 89 | 1010.8 |
| 20260505152127 | 72 | 23 | 0.9 | 5.2 | 0.00 | 0.00 | 0.00 | 90 | 1011.0 |
| 20260505151617 | 72 | 0 | 1.7 | 7.0 | 0.00 | 0.00 | 0.00 | 90 | 1011.1 |
| 20260505151108 | 71 | 23 | 2.6 | 7.0 | 0.00 | 0.00 | 0.00 | 90 | 1011.1 |
| 20260505150557 | 71 | 338 | 0.9 | 5.2 | 0.00 | 0.00 | 0.00 | 91 | 1011.2 |
| 20260505140355 | 68 | 23 | 0.0 | 1.7 | 0.00 | 0.00 | 0.00 | 97 | 1011.4 |
| 20260505130155 | 66 | 45 | 0.0 | 0.0 | 0.00 | 0.00 | 0.00 | 99 | 1011.3 |
| 20260505124624 | 65 | 0 | 0.0 | 0.0 | 0.00 | 0.00 | 0.00 | 99 | 1011.1 |
| 20260505124113 | 65 | 0 | 0.0 | 0.0 | 0.00 | 0.00 | 0.00 | 99 | 1011.3 |
| 20260505123604 | 65 | 0 | 0.0 | 0.0 | 0.00 | 0.00 | 0.00 | 99 | 1011.2 |
| 20260505123054 | 65 | 0 | 0.0 | 0.0 | 0.00 | 0.00 | 0.00 | 99 | 1011.4 |
| 20260505122034 | 64 | 45 | 0.0 | 0.0 | 0.00 | 0.00 | 0.00 | 99 | 1010.9 |
| 20260505121523 | 64 | 23 | 0.0 | 0.0 | 0.00 | 0.00 | 0.00 | 99 | 1010.9 |
| 20260505114257 | 63 | 23 | 0.0 | 0.0 | 0.00 | 0.00 | 0.00 | 99 | 1010.9 |
| 20260505113748 | 63 | 23 | 0.0 | 0.0 | 0.00 | 0.00 | 0.00 | 99 | 1010.8 |
| 20260505113237 | 63 | 23 | 0.0 | 0.0 | 0.00 | 0.00 | 0.00 | 99 | 1010.8 |
| 20260505112728 | 63 | 23 | 0.0 | 0.0 | 0.00 | 0.00 | 0.00 | 99 | 1010.7 |
| 20260505112217 | 63 | 23 | 0.0 | 0.0 | 0.00 | 0.00 | 0.00 | 99 | 1010.7 |
| 20260505111707 | 63 | 23 | 0.0 | 0.0 | 0.00 | 0.00 | 0.00 | 99 | 1010.5 |
| 20260505110648 | 63 | 23 | 0.0 | 0.0 | 0.00 | 0.00 | 0.00 | 99 | 1010.6 |
| 20260505110136 | 63 | 23 | 0.0 | 0.0 | 0.00 | 0.00 | 0.00 | 99 | 1010.3 |
| 20260505102015 | 63 | 23 | 0.0 | 0.0 | 0.00 | 0.00 | 0.00 | 99 | 1009.6 |
| 20260505101506 | 63 | 23 | 0.0 | 0.0 | 0.00 | 0.00 | 0.00 | 99 | 1009.7 |
| 20260505100446 | 63 | 23 | 0.0 | 0.0 | 0.00 | 0.00 | 0.00 | 99 | 1009.5 |
| 20260505095936 | 63 | 23 | 0.0 | 1.7 | 0.00 | 0.00 | 0.00 | 99 | 1009.5 |
| 20260505095425 | 63 | 23 | 0.0 | 1.7 | 0.00 | 0.00 | 0.00 | 99 | 1009.7 |
| 20260505094916 | 63 | 23 | 0.0 | 0.0 | 0.00 | 0.00 | 0.00 | 99 | 1009.6 |
| 20260505094405 | 62 | 23 | 0.0 | 0.0 | 0.00 | 0.00 | 0.00 | 99 | 1009.6 |
| 20260505093855 | 62 | 23 | 0.0 | 0.0 | 0.00 | 0.00 | 0.00 | 99 | 1009.5 |
| 20260505093346 | 63 | 23 | 0.0 | 0.0 | 0.00 | 0.00 | 0.00 | 99 | 1009.5 |
| 20260505092835 | 62 | 23 | 0.0 | 0.0 | 0.00 | 0.00 | 0.00 | 99 | 1009.5 |
| 20260505092325 | 63 | 23 | 0.0 | 0.0 | 0.00 | 0.00 | 0.00 | 99 | 1009.5 |
| 20260505091815 | 63 | 23 | 0.0 | 0.0 | 0.00 | 0.00 | 0.00 | 99 | 1009.3 |
| 20260505091304 | 62 | 23 | 0.0 | 0.0 | 0.00 | 0.00 | 0.00 | 99 | 1009.4 |
| 20260505090754 | 62 | 45 | 0.0 | 0.0 | 0.00 | 0.00 | 0.00 | 99 | 1009.4 |
| 20260505090244 | 62 | 45 | 0.0 | 0.0 | 0.00 | 0.00 | 0.00 | 99 | 1009.3 |
| 20260505085734 | 62 | 23 | 0.0 | 0.0 | 0.00 | 0.00 | 0.00 | 99 | 1009.1 |
| 20260505085223 | 62 | 23 | 0.0 | 0.0 | 0.00 | 0.00 | 0.00 | 99 | 1009.1 |
| 20260505084204 | 62 | 23 | 0.0 | 0.0 | 0.00 | 0.00 | 0.00 | 99 | 1009.2 |
| 20260505083654 | 62 | 23 | 0.0 | 0.0 | 0.00 | 0.00 | 0.00 | 99 | 1009.1 |
| 20260505082634 | 62 | 23 | 0.0 | 0.0 | 0.00 | 0.00 | 0.00 | 99 | 1009.0 |
| 20260505082123 | 62 | 23 | 0.0 | 0.0 | 0.00 | 0.00 | 0.00 | 99 | 1009.1 |
| 20260505081623 | 62 | 0 | 0.0 | 0.0 | 0.00 | 0.00 | 0.00 | 99 | 1009.0 |
| 20260505081103 | 62 | 0 | 0.0 | 0.0 | 0.00 | 0.00 | 0.00 | 99 | 1009.2 |
| 20260505080043 | 62 | 23 | 0.0 | 3.5 | 0.00 | 0.00 | 0.00 | 99 | 1009.3 |
| 20260505075533 | 62 | 0 | 0.0 | 0.0 | 0.00 | 0.00 | 0.00 | 99 | 1009.2 |
| 20260505075022 | 62 | 0 | 0.0 | 0.0 | 0.00 | 0.00 | 0.00 | 98 | 1009.2 |
| 20260505074512 | 61 | 23 | 0.0 | 0.0 | 0.00 | 0.00 | 0.00 | 98 | 1009.2 |
| 20260505072943 | 61 | 23 | 0.0 | 0.0 | 0.00 | 0.00 | 0.00 | 98 | 1009.3 |
| 20260505072434 | 61 | 23 | 0.0 | 0.0 | 0.00 | 0.00 | 0.00 | 98 | 1009.3 |
| 20260505071922 | 61 | 23 | 0.0 | 0.0 | 0.00 | 0.00 | 0.00 | 98 | 1009.3 |
| 20260505071422 | 60 | 23 | 0.0 | 0.0 | 0.00 | 0.00 | 0.00 | 97 | 1009.4 |
| 20260505070902 | 60 | 23 | 0.0 | 0.0 | 0.00 | 0.00 | 0.00 | 97 | 1009.3 |
| 20260505065842 | 60 | 23 | 0.0 | 0.0 | 0.00 | 0.00 | 0.00 | 96 | 1009.4 |
| 20260505065332 | 60 | 23 | 0.0 | 0.0 | 0.00 | 0.00 | 0.00 | 96 | 1009.3 |
| 20260505064821 | 60 | 23 | 0.0 | 0.0 | 0.00 | 0.00 | 0.00 | 96 | 1009.2 |
| 20260505063802 | 60 | 23 | 0.0 | 0.0 | 0.00 | 0.00 | 0.00 | 97 | 1009.5 |
| 20260505062741 | 61 | 23 | 0.0 | 0.0 | 0.00 | 0.00 | 0.00 | 97 | 1009.7 |
| 20260505062231 | 61 | 23 | 0.0 | 0.0 | 0.00 | 0.00 | 0.00 | 97 | 1009.6 |
| 20260505061721 | 61 | 23 | 0.0 | 0.0 | 0.00 | 0.00 | 0.00 | 97 | 1009.7 |
| 20260505061210 | 60 | 23 | 0.0 | 0.0 | 0.00 | 0.00 | 0.00 | 97 | 1009.9 |
| 20260505060700 | 60 | 23 | 0.0 | 0.0 | 0.00 | 0.00 | 0.00 | 97 | 1009.8 |
| 20260505060150 | 60 | 23 | 0.0 | 0.0 | 0.00 | 0.00 | 0.00 | 97 | 1010.0 |
| 20260505055641 | 60 | 23 | 0.0 | 0.0 | 0.00 | 0.00 | 0.00 | 97 | 1009.7 |
| 20260505055130 | 60 | 23 | 0.0 | 0.0 | 0.00 | 0.00 | 0.00 | 97 | 1009.7 |
| 20260505054620 | 60 | 23 | 0.0 | 0.0 | 0.00 | 0.00 | 0.00 | 96 | 1009.7 |
| 20260505054110 | 60 | 45 | 0.0 | 0.0 | 0.00 | 0.00 | 0.00 | 96 | 1009.7 |
| 20260505053600 | 60 | 23 | 0.0 | 0.0 | 0.00 | 0.00 | 0.00 | 96 | 1009.6 |
| 20260505053050 | 60 | 23 | 0.0 | 0.0 | 0.00 | 0.00 | 0.00 | 96 | 1009.9 |
| 20260505052540 | 59 | 0 | 0.0 | 0.0 | 0.00 | 0.00 | 0.00 | 96 | 1009.9 |
| 20260505052029 | 58 | 0 | 0.0 | 0.0 | 0.00 | 0.00 | 0.00 | 96 | 1009.8 |
| 20260505051529 | 58 | 0 | 0.0 | 0.0 | 0.00 | 0.00 | 0.00 | 97 | 1010.1 |
| 20260505041318 | 58 | 0 | 0.0 | 0.0 | 0.00 | 0.00 | 0.00 | 96 | 1010.0 |
| 20260505040808 | 58 | 23 | 0.0 | 0.0 | 0.00 | 0.00 | 0.00 | 96 | 1009.9 |
| 20260505040259 | 58 | 45 | 0.0 | 0.0 | 0.00 | 0.00 | 0.00 | 96 | 1010.0 |
| 20260505035748 | 58 | 45 | 0.0 | 0.0 | 0.00 | 0.00 | 0.00 | 96 | 1009.8 |
| 20260505035238 | 58 | 45 | 0.0 | 0.0 | 0.00 | 0.00 | 0.00 | 96 | 1010.0 |
| 20260505034727 | 58 | 45 | 0.0 | 0.0 | 0.00 | 0.00 | 0.00 | 96 | 1009.9 |
| 20260505034218 | 58 | 45 | 0.0 | 0.0 | 0.00 | 0.00 | 0.00 | 96 | 1009.9 |
| 20260505033707 | 58 | 45 | 0.0 | 0.0 | 0.00 | 0.00 | 0.00 | 96 | 1009.7 |
| 20260505033157 | 58 | 45 | 0.0 | 0.0 | 0.00 | 0.00 | 0.00 | 95 | 1009.7 |
| 20260505032650 | 58 | 45 | 0.0 | 0.0 | 0.00 | 0.00 | 0.00 | 95 | 1009.7 |
| 20260505032136 | 58 | 23 | 0.0 | 0.0 | 0.00 | 0.00 | 0.00 | 95 | 1009.4 |
| 20260505031627 | 58 | 45 | 0.0 | 0.0 | 0.00 | 0.00 | 0.00 | 95 | 1009.6 |
| 20260505031116 | 58 | 45 | 0.0 | 0.0 | 0.00 | 0.00 | 0.00 | 95 | 1009.7 |
| 20260505030607 | 58 | 45 | 0.0 | 0.0 | 0.00 | 0.00 | 0.00 | 95 | 1009.6 |
| 20260505025546 | 58 | 45 | 0.0 | 0.0 | 0.00 | 0.00 | 0.00 | 95 | 1009.4 |
| 20260505025037 | 58 | 45 | 0.0 | 0.0 | 0.00 | 0.00 | 0.00 | 95 | 1009.5 |
| 20260505024526 | 58 | 45 | 0.0 | 0.0 | 0.00 | 0.00 | 0.00 | 95 | 1009.3 |
| 20260505024016 | 57 | 23 | 0.0 | 0.0 | 0.00 | 0.00 | 0.00 | 95 | 1009.3 |
| 20260505023506 | 57 | 23 | 0.0 | 0.0 | 0.00 | 0.00 | 0.00 | 95 | 1009.4 |
| 20260505022956 | 57 | 23 | 0.0 | 0.0 | 0.00 | 0.00 | 0.00 | 95 | 1009.4 |
| 20260505022445 | 57 | 23 | 0.0 | 0.0 | 0.00 | 0.00 | 0.00 | 95 | 1009.4 |
| 20260505021935 | 57 | 23 | 0.0 | 6.1 | 0.00 | 0.00 | 0.00 | 95 | 1009.3 |
| 20260505021425 | 57 | 23 | 0.0 | 6.1 | 0.00 | 0.00 | 0.00 | 95 | 1009.5 |
| 20260505020916 | 57 | 23 | 0.0 | 0.0 | 0.00 | 0.00 | 0.00 | 95 | 1009.1 |
| 20260505020405 | 57 | 23 | 0.0 | 0.0 | 0.00 | 0.00 | 0.00 | 94 | 1009.4 |